Delta Virtual Airport Information Service

Washington Dulles International Airport

ICAO: KIAD Country: United States
Latitude: 38.9474 Longitude: -77.4599
Latest Arrival : DAL8846 (1C) (KBOS-KIAD) Latest Departure : UAL2781 (KIAD-KSFO)


WX CaptureLIVE
Data provided by noaa.gov | Fetched at 09:05:52

METAR : KIAD 041352Z 35017G25KT 6SM -RA BR SCT009 BKN050 OVC110 22/21 A2968 RMK AO2 SLP049 P0011 T02170206

TAF : KIAD 041137Z 0412/0518 01010KT 2SM +SHRA SCT001 OVC008 FM041400 34015KT 1 1/2SM +SHRA SCT001 OVC008 WS020/33040KT FM041600 32015KT 4SM SHRA SCT008 OVC015 FM041800 30011KT P6SM -SHRA SCT020 BKN030 FM041900 28009KT P6SM SCT035 BKN040 FM042100 24007KT P6SM SCT045 BKN130


Runway Data for KIAD
Data provided by openaviationdata.com

Runway ID Mag Var Hdg Length Elevation Surface ILS Freq ILS Id ILS Slope
01L -10 10° 11512 ft 312 ft Concrete 111.3 IOSZ 3
01R -10 10° 11511 ft 312 ft Concrete 110.1 IIAD 3
12 -10 120° 10490 ft 312 ft Concrete 109.3 IAJU 3
19L -10 190° 11511 ft 312 ft Concrete 110.1 ISGC 3
19R -10 190° 11512 ft 312 ft Concrete 111.3 IDLX 3
30 -10 300° 10490 ft 312 ft Concrete -- -- --

Washington Dulles International Airport, United States
Use only for reference purposes



Not for navigational purposes.